OneWeb SL0639

operational
NORAD ID: 55803 Int'l Des: 2023-029 Owner: ONEWEBN Country: UK Constellation: oneweb
LEOCIRCULARPOLARONEWEB_TYPE

OneWeb SL0639について

説明を読み込み中...

リアルタイム位置

3D地球を読み込み中...

次回通過

高度履歴

Altitude vs Time

uPlot chart will show altitude changes over time

軌道要素

1 55803U 23029H 25352.96703642 .00000022 00000-0 21498-4 0 9993
2 55803 87.9194 340.8393 0002335 58.6411 301.4950 13.19725616135135
Epoch: Dec 18, 2025 • Age: 4 hours

現在のステータス

高度 1190.8 km
速度 7.26 km/s
衛星直下点 44.85°N, 151.21°W
打ち上げ日 Mar 9, 2023
運用期間 2.7 years
タイプ internet

技術仕様

分類 Payload
質量 148.00 kg
乾燥質量 140.00 kg
総質量 148.00 kg
長さ 1.30 m
直径 1.00 m
スパン 5.00 m
形状 Trapezoid+2 pan
製造者 ONEWUS
バスタイプ ARROW
フェーズステータス In Orbit
所有者/国 ONEWEBN/UK

大規模コンステレーション

Loading constellations...